| time (UTC) | temp F | wind direction | speed MPH | gust MPH | rain 1hr in | rain 24hr in | rain mn in | humidity % | barometer mb |
| 20260904173956 | 93 | 135 | 6.0 | 10.0 | 0.00 | 0.00 | 0.00 | 53 | 1013.6 |
| 20260904172916 | 93 | 180 | 7.0 | 10.0 | 0.00 | 0.00 | 0.00 | 53 | 1013.7 |
| 20260904171916 | 93 | 203 | 4.0 | 19.0 | 0.00 | 0.00 | 0.00 | 54 | 1013.8 |
| 20260904170936 | 92 | 135 | 7.0 | 11.0 | 0.00 | 0.00 | 0.00 | 56 | 1014.0 |
| 20260904165916 | 91 | 135 | 6.0 | 9.0 | 0.00 | 0.00 | 0.00 | 57 | 1014.1 |
| 20260904164916 | 91 | 225 | 6.0 | 9.0 | 0.00 | 0.00 | 0.00 | 59 | 1014.2 |
| 20260904163936 | 90 | 225 | 6.0 | 7.0 | 0.00 | 0.00 | 0.00 | 59 | 1014.2 |
| 20260904162956 | 90 | 158 | 4.0 | 7.0 | 0.00 | 0.00 | 0.00 | 62 | 1014.3 |
| 20260904161915 | 89 | 135 | 8.0 | 14.0 | 0.00 | 0.00 | 0.00 | 62 | 1014.2 |
| 20260904160936 | 89 | 180 | 8.0 | 11.0 | 0.00 | 0.00 | 0.00 | 63 | 1014.2 |
| 20260904155915 | 88 | 180 | 6.0 | 8.0 | 0.00 | 0.00 | 0.00 | 64 | 1014.2 |
| 20260904154915 | 88 | 135 | 6.0 | 9.0 | 0.00 | 0.00 | 0.00 | 66 | 1014.1 |
| 20260904153915 | 87 | 180 | 5.0 | 10.0 | 0.00 | 0.00 | 0.00 | 68 | 1014.0 |
| 20260904152915 | 86 | 135 | 6.0 | 9.0 | 0.00 | 0.00 | 0.00 | 72 | 1014.0 |
| 20260904151915 | 86 | 158 | 6.0 | 10.0 | 0.00 | 0.00 | 0.00 | 72 | 1014.0 |
| 20260904150915 | 85 | 135 | 4.0 | 8.0 | 0.00 | 0.00 | 0.00 | 75 | 1014.0 |
| 20260904145915 | 84 | 158 | 3.0 | 7.0 | 0.00 | 0.00 | 0.00 | 77 | 1013.9 |
| 20260904144915 | 83 | 180 | 7.0 | 12.0 | 0.00 | 0.00 | 0.00 | 78 | 1014.0 |
| 20260904143915 | 83 | 203 | 8.0 | 12.0 | 0.00 | 0.00 | 0.00 | 80 | 1014.0 |
| 20260904142935 | 82 | 0 | 5.0 | 9.0 | 0.00 | 0.00 | 0.00 | 82 | 1013.9 |
| 20260904141915 | 81 | 0 | 7.0 | 9.0 | 0.00 | 0.00 | 0.00 | 84 | 1013.9 |
| 20260904140935 | 80 | 203 | 7.0 | 10.0 | 0.00 | 0.00 | 0.00 | 85 | 1013.8 |
| 20260904135917 | 80 | 180 | 7.0 | 8.0 | 0.00 | 0.00 | 0.00 | 85 | 1013.7 |
| 20260904134935 | 79 | 135 | 3.0 | 4.0 | 0.00 | 0.00 | 0.00 | 87 | 1013.6 |
| 20260904133937 | 79 | 0 | 6.0 | 10.0 | 0.00 | 0.00 | 0.00 | 87 | 1013.5 |
| 20260904132917 | 78 | 0 | 5.0 | 7.0 | 0.00 | 0.00 | 0.00 | 88 | 1013.5 |
| 20260904131917 | 77 | 0 | 6.0 | 9.0 | 0.00 | 0.00 | 0.00 | 88 | 1013.4 |
| 20260904130938 | 76 | 135 | 4.0 | 6.0 | 0.00 | 0.00 | 0.00 | 88 | 1013.5 |
| 20260904125917 | 76 | 158 | 4.0 | 7.0 | 0.00 | 0.00 | 0.00 | 88 | 1013.5 |
| 20260904124917 | 76 | 180 | 3.0 | 6.0 | 0.00 | 0.00 | 0.00 | 89 | 1013.3 |
| 20260904123917 | 75 | 180 | 2.0 | 4.0 | 0.00 | 0.00 | 0.00 | 88 | 1013.2 |
| 20260904122917 | 75 | 203 | 1.0 | 2.0 | 0.00 | 0.00 | 0.00 | 88 | 1013.3 |
| 20260904121917 | 75 | 158 | 1.0 | 4.0 | 0.00 | 0.00 | 0.00 | 88 | 1013.2 |
| 20260904120917 | 75 | 135 | 2.0 | 4.0 | 0.00 | 0.00 | 0.00 | 88 | 1013.1 |
| 20260904115917 | 75 | 135 | 3.0 | 5.0 | 0.00 | 0.00 | 0.00 | 87 | 1012.9 |
| 20260904114917 | 75 | 135 | 5.0 | 8.0 | 0.00 | 0.00 | 0.00 | 87 | 1012.7 |
| 20260904113917 | 75 | 135 | 4.0 | 7.0 | 0.00 | 0.00 | 0.00 | 87 | 1012.8 |
| 20260904112917 | 75 | 158 | 4.0 | 6.0 | 0.00 | 0.00 | 0.00 | 86 | 1012.8 |
| 20260904111917 | 75 | 0 | 3.0 | 4.0 | 0.00 | 0.00 | 0.00 | 86 | 1012.7 |
| 20260904110917 | 75 | 158 | 2.0 | 2.0 | 0.00 | 0.00 | 0.00 | 86 | 1012.7 |
| 20260904105917 | 76 | 0 | 3.0 | 6.0 | 0.00 | 0.00 | 0.00 | 86 | 1012.7 |
| 20260904104917 | 76 | 135 | 3.0 | 5.0 | 0.00 | 0.00 | 0.00 | 85 | 1012.6 |
| 20260904103916 | 76 | 135 | 4.0 | 5.0 | 0.00 | 0.00 | 0.00 | 85 | 1012.5 |
| 20260904102916 | 76 | 135 | 3.0 | 6.0 | 0.00 | 0.00 | 0.00 | 85 | 1012.5 |
| 20260904101917 | 76 | 135 | 3.0 | 5.0 | 0.00 | 0.00 | 0.00 | 85 | 1012.4 |
| 20260904100917 | 76 | 0 | 2.0 | 4.0 | 0.00 | 0.00 | 0.00 | 84 | 1012.5 |
| 20260904095916 | 76 | 158 | 2.0 | 4.0 | 0.00 | 0.00 | 0.00 | 84 | 1012.6 |
| 20260904094917 | 76 | 0 | 2.0 | 5.0 | 0.00 | 0.00 | 0.00 | 83 | 1012.5 |
| 20260904093916 | 76 | 158 | 2.0 | 4.0 | 0.00 | 0.00 | 0.00 | 83 | 1012.4 |
| 20260904092917 | 76 | 135 | 4.0 | 5.0 | 0.00 | 0.00 | 0.00 | 83 | 1012.3 |
| 20260904091917 | 77 | 158 | 3.0 | 5.0 | 0.00 | 0.00 | 0.00 | 82 | 1012.4 |
| 20260904090916 | 77 | 180 | 1.0 | 2.0 | 0.00 | 0.00 | 0.00 | 82 | 1012.4 |
| 20260904085917 | 77 | 0.0 | 1.0 | 0.00 | 0.00 | 0.00 | 81 | 1012.3 | |
| 20260904084916 | 77 | 180 | 2.0 | 5.0 | 0.00 | 0.00 | 0.00 | 81 | 1012.3 |
| 20260904083916 | 77 | 0 | 4.0 | 5.0 | 0.00 | 0.00 | 0.00 | 81 | 1012.2 |
| 20260904082916 | 77 | 158 | 3.0 | 5.0 | 0.00 | 0.00 | 0.00 | 80 | 1012.2 |
| 20260904081916 | 77 | 180 | 2.0 | 4.0 | 0.00 | 0.00 | 0.00 | 80 | 1012.2 |
| 20260904080916 | 77 | 180 | 3.0 | 5.0 | 0.00 | 0.00 | 0.00 | 79 | 1012.0 |
| 20260904075916 | 77 | 158 | 4.0 | 6.0 | 0.00 | 0.00 | 0.00 | 79 | 1012.1 |
| 20260904074916 | 78 | 180 | 4.0 | 6.0 | 0.00 | 0.00 | 0.00 | 78 | 1012.0 |
| 20260904073916 | 78 | 158 | 2.0 | 5.0 | 0.00 | 0.00 | 0.00 | 78 | 1012.1 |
| 20260904072916 | 78 | 158 | 2.0 | 5.0 | 0.00 | 0.00 | 0.00 | 78 | 1012.2 |
| 20260904071916 | 78 | 180 | 4.0 | 6.0 | 0.00 | 0.00 | 0.00 | 77 | 1012.2 |
| 20260904070916 | 78 | 180 | 1.0 | 3.0 | 0.00 | 0.00 | 0.00 | 77 | 1012.1 |
| 20260904065916 | 78 | 180 | 3.0 | 6.0 | 0.00 | 0.00 | 0.00 | 77 | 1012.2 |
| 20260904064916 | 78 | 180 | 4.0 | 6.0 | 0.00 | 0.00 | 0.00 | 77 | 1012.1 |
| 20260904063956 | 78 | 135 | 4.0 | 6.0 | 0.00 | 0.00 | 0.00 | 78 | 1012.1 |
| 20260904062916 | 79 | 180 | 5.0 | 7.0 | 0.00 | 0.00 | 0.00 | 78 | 1012.1 |
| 20260904061916 | 79 | 158 | 5.0 | 8.0 | 0.00 | 0.00 | 0.00 | 78 | 1012.2 |
| 20260904060916 | 79 | 180 | 5.0 | 7.0 | 0.00 | 0.00 | 0.00 | 78 | 1012.2 |
| 20260904055916 | 79 | 180 | 6.0 | 7.0 | 0.00 | 0.00 | 0.00 | 77 | 1012.1 |
| 20260904054936 | 79 | 180 | 3.0 | 5.0 | 0.00 | 0.00 | 0.00 | 78 | 1012.2 |
| 20260904053916 | 80 | 203 | 5.0 | 6.0 | 0.00 | 0.00 | 0.00 | 78 | 1012.3 |
| 20260904052916 | 80 | 180 | 4.0 | 6.0 | 0.00 | 0.00 | 0.00 | 78 | 1012.2 |
| 20260904051916 | 80 | 203 | 4.0 | 7.0 | 0.00 | 0.00 | 0.00 | 78 | 1012.1 |
| 20260904050916 | 80 | 180 | 4.0 | 5.0 | 0.00 | 0.00 | 0.00 | 78 | 1012.1 |
| 20260904045916 | 80 | 180 | 5.0 | 7.0 | 0.00 | 0.00 | 0.00 | 78 | 1011.9 |
| 20260904044916 | 80 | 158 | 5.0 | 6.0 | 0.00 | 0.00 | 0.00 | 78 | 1011.8 |
| 20260904043916 | 81 | 180 | 7.0 | 10.0 | 0.00 | 0.00 | 0.00 | 77 | 1011.9 |
| 20260904042936 | 81 | 135 | 6.0 | 9.0 | 0.00 | 0.00 | 0.00 | 77 | 1012.0 |
| 20260904041936 | 81 | 158 | 7.0 | 10.0 | 0.00 | 0.00 | 0.00 | 76 | 1012.0 |
| 20260904040915 | 81 | 135 | 4.0 | 6.0 | 0.00 | 0.00 | 0.00 | 76 | 1012.1 |
| 20260904035916 | 81 | 158 | 4.0 | 6.0 | 0.00 | 0.00 | 0.00 | 76 | 1012.1 |
| 20260904034916 | 81 | 158 | 2.0 | 4.0 | 0.00 | 0.00 | 0.00 | 76 | 1012.2 |
| 20260904033915 | 82 | 135 | 1.0 | 2.0 | 0.00 | 0.00 | 0.00 | 75 | 1012.3 |
| 20260904032916 | 82 | 0.0 | 1.0 | 0.00 | 0.00 | 0.00 | 75 | 1012.3 | |
| 20260904031915 | 82 | 158 | 3.0 | 4.0 | 0.00 | 0.00 | 0.00 | 75 | 1012.1 |
| 20260904030915 | 82 | 0.0 | 2.0 | 0.00 | 0.00 | 0.00 | 74 | 1012.0 | |
| 20260904025936 | 82 | 158 | 1.0 | 2.0 | 0.00 | 0.00 | 0.00 | 74 | 1012.0 |
| 20260904024915 | 83 | 158 | 1.0 | 2.0 | 0.00 | 0.00 | 0.00 | 74 | 1011.9 |
| 20260904023915 | 83 | 158 | 1.0 | 2.0 | 0.00 | 0.00 | 0.00 | 74 | 1011.8 |
| 20260904022915 | 83 | 0.0 | 0.0 | 0.00 | 0.00 | 0.00 | 73 | 1011.6 | |
| 20260904021915 | 83 | 180 | 1.0 | 2.0 | 0.00 | 0.00 | 0.00 | 73 | 1011.4 |
| 20260904020915 | 83 | 180 | 3.0 | 5.0 | 0.00 | 0.00 | 0.00 | 73 | 1011.2 |
| 20260904015915 | 84 | 180 | 3.0 | 6.0 | 0.00 | 0.00 | 0.00 | 72 | 1011.0 |
| 20260904014935 | 84 | 180 | 3.0 | 6.0 | 0.00 | 0.00 | 0.00 | 72 | 1010.9 |
| 20260904013915 | 84 | 180 | 5.0 | 8.0 | 0.00 | 0.00 | 0.00 | 72 | 1010.8 |
| 20260904012917 | 84 | 135 | 4.0 | 6.0 | 0.00 | 0.00 | 0.00 | 72 | 1010.7 |
| 20260904011937 | 84 | 135 | 5.0 | 8.0 | 0.00 | 0.00 | 0.00 | 72 | 1010.7 |
| 20260904010917 | 84 | 0 | 7.0 | 9.0 | 0.00 | 0.00 | 0.00 | 72 | 1010.6 |
| 20260904005917 | 85 | 0 | 4.0 | 7.0 | 0.00 | 0.00 | 0.00 | 72 | 1010.6 |
| 20260904004915 | 85 | 135 | 7.0 | 9.0 | 0.00 | 0.00 | 0.00 | 72 | 1010.7 |
| 20260904003917 | 85 | 0 | 8.0 | 11.0 | 0.00 | 0.00 | 0.00 | 71 | 1010.7 |
| 20260904002917 | 86 | 0 | 9.0 | 15.0 | 0.00 | 0.00 | 0.00 | 69 | 1010.7 |
| 20260904001917 | 87 | 135 | 6.0 | 11.0 | 0.00 | 0.00 | 0.00 | 67 | 1010.6 |
| 20260904000937 | 88 | 135 | 5.0 | 7.0 | 0.00 | 0.00 | 0.00 | 66 | 1010.5 |
| 20260903235915 | 88 | 135 | 5.0 | 9.0 | 0.00 | 0.00 | 0.00 | 65 | 1010.4 |
| 20260903234917 | 88 | 0 | 6.0 | 8.0 | 0.00 | 0.00 | 0.00 | 64 | 1010.4 |
| 20260903233937 | 89 | 0 | 6.0 | 10.0 | 0.00 | 0.00 | 0.00 | 64 | 1010.4 |
| 20260903232917 | 88 | 0 | 8.0 | 11.0 | 0.00 | 0.00 | 0.00 | 64 | 1010.3 |
| 20260903231917 | 88 | 135 | 6.0 | 9.0 | 0.00 | 0.00 | 0.00 | 65 | 1010.4 |
| 20260903230917 | 88 | 135 | 6.0 | 9.0 | 0.00 | 0.00 | 0.00 | 65 | 1010.3 |
| 20260903225917 | 88 | 0 | 7.0 | 11.0 | 0.00 | 0.00 | 0.00 | 64 | 1010.4 |
| 20260903224917 | 88 | 158 | 6.0 | 8.0 | 0.00 | 0.00 | 0.00 | 65 | 1010.4 |
| 20260903223917 | 89 | 0 | 6.0 | 9.0 | 0.00 | 0.00 | 0.00 | 64 | 1010.3 |
| 20260903222917 | 89 | 0 | 9.0 | 12.0 | 0.00 | 0.00 | 0.00 | 63 | 1010.4 |
| 20260903221917 | 89 | 180 | 6.0 | 9.0 | 0.00 | 0.00 | 0.00 | 64 | 1010.3 |
| 20260903220917 | 88 | 158 | 5.0 | 7.0 | 0.00 | 0.00 | 0.00 | 66 | 1010.4 |
| 20260903215917 | 88 | 135 | 6.0 | 9.0 | 0.00 | 0.00 | 0.00 | 67 | 1010.4 |
| 20260903214916 | 87 | 135 | 4.0 | 6.0 | 0.00 | 0.00 | 0.00 | 68 | 1010.4 |
| 20260903213916 | 87 | 0 | 8.0 | 10.0 | 0.00 | 0.00 | 0.00 | 68 | 1010.6 |
| 20260903212917 | 87 | 0 | 7.0 | 10.0 | 0.00 | 0.00 | 0.00 | 69 | 1010.6 |
| 20260903211916 | 86 | 180 | 10.0 | 13.0 | 0.00 | 0.00 | 0.00 | 70 | 1010.8 |
| 20260903210916 | 86 | 158 | 6.0 | 9.0 | 0.00 | 0.00 | 0.00 | 71 | 1010.8 |
| 20260903205917 | 86 | 135 | 9.0 | 14.0 | 0.00 | 0.00 | 0.00 | 71 | 1010.9 |
| 20260903204916 | 85 | 203 | 9.0 | 13.0 | 0.00 | 0.00 | 0.00 | 72 | 1011.0 |
| 20260903203916 | 85 | 0 | 8.0 | 11.0 | 0.00 | 0.00 | 0.00 | 72 | 1011.2 |
| 20260903202917 | 85 | 135 | 9.0 | 13.0 | 0.00 | 0.00 | 0.00 | 73 | 1011.3 |
| 20260903201916 | 85 | 135 | 6.0 | 7.0 | 0.00 | 0.00 | 0.00 | 74 | 1011.5 |
| 20260903200916 | 84 | 158 | 6.0 | 10.0 | 0.00 | 0.00 | 0.00 | 75 | 1011.5 |
| 20260903195916 | 84 | 135 | 10.0 | 14.0 | 0.00 | 0.00 | 0.00 | 75 | 1011.6 |
| 20260903194916 | 84 | 135 | 10.0 | 18.0 | 0.00 | 0.00 | 0.00 | 76 | 1011.6 |
| 20260903193917 | 85 | 0 | 11.0 | 20.0 | 0.00 | 0.00 | 0.00 | 75 | 1011.7 |
| 20260903192916 | 84 | 135 | 9.0 | 12.0 | 0.00 | 0.00 | 0.00 | 75 | 1011.9 |
| 20260903191916 | 84 | 135 | 9.0 | 12.0 | 0.00 | 0.00 | 0.00 | 76 | 1012.0 |
| 20260903190916 | 84 | 135 | 5.0 | 9.0 | 0.00 | 0.00 | 0.00 | 77 | 1012.0 |
| 20260903185916 | 84 | 180 | 8.0 | 10.0 | 0.00 | 0.00 | 0.00 | 77 | 1012.2 |
| 20260903184916 | 84 | 180 | 10.0 | 14.0 | 0.00 | 0.00 | 0.00 | 78 | 1012.3 |
| 20260903183916 | 83 | 135 | 7.0 | 9.0 | 0.00 | 0.00 | 0.00 | 78 | 1012.4 |
| 20260903182917 | 83 | 135 | 11.0 | 18.0 | 0.00 | 0.00 | 0.00 | 79 | 1012.5 |
| 20260903181916 | 83 | 158 | 6.0 | 8.0 | 0.00 | 0.00 | 0.00 | 79 | 1012.6 |
| 20260903180916 | 83 | 135 | 5.0 | 9.0 | 0.00 | 0.00 | 0.00 | 79 | 1012.6 |
| 20260903175916 | 83 | 180 | 8.0 | 11.0 | 0.00 | 0.00 | 0.00 | 79 | 1012.7 |
| 20260903174916 | 83 | 158 | 9.0 | 12.0 | 0.00 | 0.00 | 0.00 | 80 | 1012.8 |